カタログに戻る

FENGYUN 2F AKM

運用中GEO
NORAD 38072·ROCKET BODY·🇨🇳 China

打ち上げ Jan 13, 2012 から Xichang Satellite Launch Center

Loading…

TLE

最新Source: Space-Track

元期: Sep 14, 2026, 10:50 UTC

1 38072U 12002C   26257.45205795 -.00000133  00000-0  00000-0 0  9992
2 38072   9.3727  56.8411 0062488 207.8579 350.1938  0.99392415 52728

AllMySatでFENGYUN 2F AKMをリアルタイム追跡

Download on the App Store